• In Hungary
  • List of Countries
  • For 7 days
  • Water Temperature
  • Satellite Maps
  • Weather Map
  • News
  • Weather Widgets
  • user-avatar
    Login

    Hourly Weather Islamabad

    Today, 19 January, Friday

    Time Temperature Precipitation Wind Pressure Humidity
    00:00 +11°C° 0 mm 3 mps 716 mmHg 21%
    01:00 +11°C° 0 mm 3 mps 716 mmHg 21%
    02:00 +12°C° 0 mm 2 mps 716 mmHg 21%
    03:00 +10°C° 0 mm 2 mps 716 mmHg 21%
    04:00 +10°C° 0 mm 2 mps 716 mmHg 20%
    05:00 +9°C° 0 mm 2 mps 716 mmHg 22%
    06:00 +9°C° 0 mm 2 mps 716 mmHg 22%
    07:00 +10°C° 0 mm 2 mps 716 mmHg 23%
    08:00 +10°C° 0 mm 2 mps 717 mmHg 23%
    09:00 +14°C° 0 mm 2 mps 717 mmHg 20%
    10:00 +17°C° 0 mm 2 mps 718 mmHg 18%
    11:00 +20°C° 0 mm 2 mps 718 mmHg 15%
    12:00 +21°C° 0 mm 2 mps 718 mmHg 14%
    13:00 +21°C° 0 mm 3 mps 718 mmHg 14%
    14:00 +22°C° 0 mm 3 mps 718 mmHg 14%
    15:00 +21°C° 0 mm 3 mps 718 mmHg 17%
    16:00 +19°C° 0 mm 2 mps 718 mmHg 21%
    17:00 +18°C° 0 mm 2 mps 717 mmHg 24%
    18:00 +17°C° 0 mm 2 mps 718 mmHg 23%
    19:00 +15°C° 0 mm 2 mps 718 mmHg 22%
    20:00 +13°C° 0 mm 3 mps 718 mmHg 21%
    21:00 +13°C° 0 mm 3 mps 718 mmHg 20%
    22:00 +12°C° 0 mm 3 mps 718 mmHg 19%
    23:00 +12°C° 0 mm 3 mps 718 mmHg 17%

    Tomorrow, 20 January, Saturday

    Time Temperature Precipitation Wind Pressure Humidity
    00:00 +11°C° 0 mm 3 mps 718 mmHg 17%
    01:00 +11°C° 0 mm 3 mps 718 mmHg 17%
    02:00 +11°C° 0 mm 3 mps 717 mmHg 16%
    03:00 +10°C° 0 mm 3 mps 717 mmHg 17%
    04:00 +10°C° 0 mm 3 mps 717 mmHg 17%
    05:00 +10°C° 0 mm 3 mps 716 mmHg 18%
    06:00 +10°C° 0 mm 3 mps 717 mmHg 18%
    07:00 +10°C° 0 mm 3 mps 717 mmHg 19%
    08:00 +10°C° 0 mm 3 mps 717 mmHg 20%
    09:00 +13°C° 0 mm 3 mps 717 mmHg 18%
    10:00 +17°C° 0 mm 3 mps 717 mmHg 16%
    11:00 +20°C° 0 mm 3 mps 718 mmHg 14%
    12:00 +21°C° 0 mm 3 mps 717 mmHg 14%
    13:00 +22°C° 0 mm 3 mps 717 mmHg 13%
    14:00 +24°C° 0 mm 3 mps 716 mmHg 13%
    15:00 +22°C° 0 mm 3 mps 716 mmHg 16%
    16:00 +20°C° 0 mm 2 mps 715 mmHg 20%
    17:00 +18°C° 0 mm 2 mps 714 mmHg 23%
    18:00 +17°C° 0 mm 2 mps 715 mmHg 22%
    19:00 +16°C° 0 mm 2 mps 715 mmHg 21%
    20:00 +15°C° 0 mm 2 mps 715 mmHg 20%
    21:00 +14°C° 0 mm 2 mps 715 mmHg 20%
    22:00 +14°C° 0 mm 2 mps 714 mmHg 20%
    23:00 +13°C° 0 mm 2 mps 714 mmHg 19%

    Day after tomorrow, 21 January, Sunday

    Time Temperature Precipitation Wind Pressure Humidity
    00:00 +13°C° 0 mm 2 mps 714 mmHg 19%
    01:00 +12°C° 0 mm 2 mps 714 mmHg 19%
    02:00 +12°C° 0 mm 2 mps 714 mmHg 19%
    03:00 +12°C° 0 mm 2 mps 714 mmHg 18%
    04:00 +10°C° 0 mm 2 mps 713 mmHg 18%
    05:00 +10°C° 0 mm 2 mps 713 mmHg 17%
    06:00 +10°C° 0 mm 2 mps 713 mmHg 18%
    07:00 +12°C° 0 mm 2 mps 714 mmHg 18%
    08:00 +12°C° 0 mm 2 mps 714 mmHg 19%
    09:00 +15°C° 0 mm 2 mps 715 mmHg 17%
    10:00 +19°C° 0 mm 1 mps 715 mmHg 14%
    11:00 +22°C° 0 mm 1 mps 716 mmHg 12%
    12:00 +23°C° 0 mm 1 mps 716 mmHg 12%
    13:00 +23°C° 0 mm 1 mps 715 mmHg 12%
    14:00 +24°C° 0 mm 2 mps 715 mmHg 12%
    15:00 +22°C° 0 mm 1 mps 714 mmHg 16%
    16:00 +21°C° 0 mm 1 mps 714 mmHg 21%
    17:00 +19°C° 0 mm 1 mps 713 mmHg 25%
    18:00 +18°C° 0 mm 1 mps 713 mmHg 25%
    19:00 +15°C° 0 mm 1 mps 714 mmHg 25%
    20:00 +14°C° 0 mm 1 mps 714 mmHg 25%
    21:00 +14°C° 0 mm 1 mps 714 mmHg 25%
    22:00 +13°C° 0 mm 1 mps 714 mmHg 24%
    23:00 +13°C° 0 mm 2 mps 714 mmHg 24%

    22 January, Monday

    Time Temperature Precipitation Wind Pressure Humidity
    00:00 +12°C° 0 mm 2 mps 714 mmHg 24%
    01:00 +12°C° 0 mm 2 mps 713 mmHg 24%
    02:00 +12°C° 0 mm 2 mps 713 mmHg 23%
    03:00 +10°C° 0 mm 2 mps 713 mmHg 23%
    04:00 +10°C° 0 mm 2 mps 712 mmHg 23%
    05:00 +10°C° 0 mm 2 mps 712 mmHg 23%
    06:00 +10°C° 0 mm 2 mps 712 mmHg 23%
    07:00 +10°C° 0 mm 2 mps 712 mmHg 23%
    08:00 +10°C° 0 mm 2 mps 713 mmHg 23%
    09:00 +14°C° 0 mm 1 mps 713 mmHg 20%
    10:00 +18°C° 0 mm 1 mps 714 mmHg 17%
    11:00 +21°C° 0 mm 1 mps 715 mmHg 14%
    12:00 +22°C° 0 mm 1 mps 714 mmHg 14%
    13:00 +22°C° 0 mm 1 mps 714 mmHg 14%
    14:00 +23°C° 0 mm 2 mps 713 mmHg 14%
    15:00 +22°C° 0 mm 1 mps 713 mmHg 18%
    16:00 +20°C° 0 mm 1 mps 712 mmHg 22%
    17:00 +19°C° 0 mm 1 mps 711 mmHg 26%
    18:00 +16°C° 0 mm 1 mps 711 mmHg 26%
    19:00 +15°C° 0 mm 1 mps 712 mmHg 27%
    20:00 +13°C° 0 mm 1 mps 712 mmHg 27%
    21:00 +13°C° 0 mm 1 mps 712 mmHg 27%
    22:00 +13°C° 0 mm 1 mps 712 mmHg 27%
    23:00 +12°C° 0 mm 2 mps 712 mmHg 26%

    23 January, Tuesday

    Time Temperature Precipitation Wind Pressure Humidity
    00:00 +12°C° 0 mm 2 mps 712 mmHg 26%
    01:00 +12°C° 0 mm 2 mps 712 mmHg 26%
    02:00 +10°C° 0 mm 2 mps 711 mmHg 26%
    03:00 +10°C° 0 mm 2 mps 711 mmHg 26%
    04:00 +10°C° 0 mm 2 mps 711 mmHg 25%
    05:00 +9°C° 0 mm 2 mps 711 mmHg 25%
    06:00 +10°C° 0 mm 2 mps 712 mmHg 25%
    07:00 +10°C° 0 mm 2 mps 712 mmHg 25%
    08:00 +10°C° 0 mm 2 mps 713 mmHg 25%
    09:00 +14°C° 0 mm 2 mps 714 mmHg 21%
    10:00 +16°C° 0 mm 1 mps 714 mmHg 18%
    11:00 +20°C° 0 mm 1 mps 715 mmHg 15%
    12:00 +20°C° 0 mm 2 mps 715 mmHg 15%
    13:00 +20°C° 0 mm 2 mps 714 mmHg 15%
    14:00 +21°C° 0 mm 2 mps 714 mmHg 15%
    15:00 +20°C° 0 mm 2 mps 713 mmHg 18%
    16:00 +18°C° 0 mm 2 mps 713 mmHg 21%
    17:00 +17°C° 0 mm 2 mps 713 mmHg 24%
    18:00 +16°C° 0 mm 2 mps 713 mmHg 24%
    19:00 +14°C° 0 mm 2 mps 713 mmHg 25%
    20:00 +13°C° 0 mm 1 mps 713 mmHg 25%
    21:00 +12°C° 0 mm 2 mps 714 mmHg 24%
    22:00 +12°C° 0 mm 2 mps 714 mmHg 24%
    23:00 +12°C° 0 mm 2 mps 714 mmHg 23%

    24 January, Wednesday

    Time Temperature Precipitation Wind Pressure Humidity
    00:00 +10°C° 0 mm 2 mps 714 mmHg 23%
    01:00 +10°C° 0 mm 2 mps 714 mmHg 22%
    02:00 +10°C° 0 mm 2 mps 713 mmHg 21%
    03:00 +9°C° 0 mm 2 mps 713 mmHg 20%
    04:00 +9°C° 0 mm 2 mps 713 mmHg 19%
    05:00 +9°C° 0 mm 2 mps 713 mmHg 19%
    06:00 +9°C° 0 mm 2 mps 714 mmHg 20%
    07:00 +9°C° 0 mm 2 mps 714 mmHg 21%
    08:00 +9°C° 0 mm 2 mps 715 mmHg 22%
    09:00 +13°C° 0 mm 2 mps 715 mmHg 19%
    10:00 +16°C° 0 mm 1 mps 716 mmHg 16%
    11:00 +19°C° 0 mm 1 mps 716 mmHg 13%
    12:00 +20°C° 0 mm 1 mps 716 mmHg 13%
    13:00 +20°C° 0 mm 2 mps 715 mmHg 13%
    14:00 +21°C° 0 mm 2 mps 715 mmHg 13%
    15:00 +19°C° 0 mm 2 mps 714 mmHg 16%
    16:00 +18°C° 0 mm 2 mps 714 mmHg 19%
    17:00 +18°C° 0 mm 1 mps 713 mmHg 23%
    18:00 +15°C° 0 mm 1 mps 713 mmHg 23%
    19:00 +14°C° 0 mm 1 mps 714 mmHg 23%
    20:00 +12°C° 0 mm 1 mps 714 mmHg 24%
    21:00 +12°C° 0 mm 1 mps 714 mmHg 24%
    22:00 +12°C° 0 mm 2 mps 714 mmHg 23%
    23:00 +10°C° 0 mm 2 mps 714 mmHg 23%
    Show more